AEE590 LGTS-LGSR

Flight info

Callsign AEE590
Flight time N/A
Altitude 31000
Route LEKPO UL617 SKP UM749 ATV UL995 KEA UL607 NETIS UM601 PEXAN
Aircraft A320/M-SDE3FGHIRWY/LB1

Departure

Time N/A
Airport Thessaloniki Macedonia International Airport (LGTS)

Arrival

Time 2026-04-30 17:56
Airport Santorini International Airport (LGSR)
Time Latitude Longitude Altitude Speed Heading
2026-04-30 17:39 36.70477 24.98465 9833 ft 309 kts 114°
2026-04-30 17:41 36.67958 25.18310 7732 ft 264 kts 103°
2026-04-30 17:42 36.66707 25.22511 6826 ft 257 kts 131°
2026-04-30 17:42 36.62601 25.26595 5422 ft 249 kts 145°
2026-04-30 17:43 36.59873 25.29159 4531 ft 243 kts 145°
2026-04-30 17:44 36.55874 25.32921 3112 ft 237 kts 147°
2026-04-30 17:44 36.52268 25.36059 3006 ft 239 kts 149°
2026-04-30 17:46 36.46189 25.41260 3009 ft 203 kts 149°
2026-04-30 17:47 36.41456 25.45290 3008 ft 207 kts 153°
2026-04-30 17:48 36.37844 25.50944 3008 ft 213 kts 125°
2026-04-30 17:48 36.35936 25.55898 3011 ft 215 kts 106°
2026-04-30 17:49 36.34209 25.62826 3010 ft 189 kts 136°
2026-04-30 17:50 36.30345 25.63338 3010 ft 137 kts 221°
2026-04-30 17:51 36.28985 25.60318 3013 ft 138 kts 252°
2026-04-30 17:52 36.28901 25.56852 3004 ft 140 kts 291°
2026-04-30 17:53 36.32672 25.53047 1814 ft 137 kts 315°
2026-04-30 17:54 36.35754 25.50197 555 ft 143 kts 328°
2026-04-30 17:55 36.39380 25.48177 84 ft 142 kts 341°
2026-04-30 17:56 36.40433 25.47503 91 ft 7 kts 249°
2026-04-30 17:57 36.40426 25.47362 90 ft 3 kts 252°
2026-04-30 17:58 36.40420 25.47343 93 ft 0 kts 249°